Regional Weather Roundup
Issued by NWS Charleston, WV

Home | Current Version | Previous Version | Text Only | Print | Product List | Glossary Off
Versions: 1 2 3 4 5 6 7 8 9 10 11 12 13 14 15 16 17 18 19 20 21 22 23 24 25 26 27 28 29 30 31 32 33 34 35 36 37 38 39 40 41 42 43 44 45 46 47 48 49 50

000
ASUS41 KRLX 060510
RWRRLX
West Virginia Regional Weather Roundup
National Weather Service Charleston WV
1200 AM EST FRI MAR 06 2015

Note: "fair" indicates few or no clouds below 12,000 feet with no
significant weather and/or obstructions to visibility.

WVZ003-060600-
Northern Panhandle of West Virginia

CITY           SKY/WX    TMP DP  RH WIND       PRES   REMARKS
WHEELING       PTCLDY     7  -1  70 CALM      30.48S
$$

WVZ009-060600-
Northwest West Virginia

CITY           SKY/WX    TMP DP  RH WIND       PRES   REMARKS
PARKERSBURG    CLEAR     11   6  81 NE3       30.55F
$$

WVZ006-060600-
Western West Virginia

CITY           SKY/WX    TMP DP  RH WIND       PRES   REMARKS
HUNTINGTON     MOCLDY    10   7  87 CALM      30.51F FOG
$$

WVZ015-060600-
West Central West Virginia

CITY           SKY/WX    TMP DP  RH WIND       PRES   REMARKS
CHARLESTON     FLURRIES  17  14  88 CALM      30.49F
$$

WVZ022-031-060600-
North Central West Virginia

CITY           SKY/WX    TMP DP  RH WIND       PRES   REMARKS
CLARKSBURG       N/A      4   3  96 CALM      30.47F
MORGANTOWN     CLEAR      5   0  79 NW3       30.47F
$$

WVZ025-035-042-045-060600-
Southern West Virginia

CITY           SKY/WX    TMP DP  RH WIND       PRES   REMARKS
BECKLEY        LGT SNOW  13   9  84 N9        30.34F FOG     WCI   1
LOGAN          CLOUDY    14  10  85 CALM      30.41S
BLUEFIELD      FLURRIES  14   7  73 NW8       30.31S WCI   3
LEWISBURG      PTCLDY    12   5  73 NW3       30.33F
$$

WVZ047-060600-
Northern Mountains of West Virginia

CITY           SKY/WX    TMP DP  RH WIND       PRES   REMARKS
ELKINS         MOCLDY    10   6  84 CALM      30.40S
$$

WVZ052-060600-
Eastern Panhandle of West Virginia

CITY           SKY/WX    TMP DP  RH WIND       PRES   REMARKS
MARTINSBURG    CLEAR     17   1  49 N3        30.47R
PETERSBURG       N/A    N/A N/A N/A MISG        N/A
$$


USA.gov is the U.S. government's official web portal to all federal, state and local government web resources and services.